STARLINK-32870, 63018

Orbit data source: Space-Track

STARLINK-32870, 63018 is a payload satellite owned by SpaceX/Seattle (US) in LEO that was launched on Sat, 15 Feb 2025 UTC via an FALCON 9 launch vehicle from the Air Force Eastern Test Range (AFETR). Payload-class satellites include a variety of spacecraft equipped with specific instruments for various scientific and technological missions. These include communications satellites like Starlink; space stations such as the ISS; scientific satellites like the Hubble; Earth observation satellites from companies like Planet Labs, Umbra, and HawkEye 360; GPS; miniature CubeSats for education and research; and military/defense satellites.

Loading next visibility...
Identifier
63018, 2025-032P
Orbit
LEO
Country
Flag of USUS
Related business
Manufacturer
SpaceX/Seattle
Mission
Operational Commercial Communications
Bus & Motor
STARLINK V2M, Unknown motor
Mass
730 kg wet, ~700 kg dry
Launch date (UTC)
2025-02-15 (8 months ago)
Launch vehicle
FALCON 9
Launch site
Air Force Eastern Test Range (AFETR)
Object type
Payload
Rocket body
Debris
Shape & HBR
Box + 2 Pan, 17.7 m
Radar Cross Section
33.884 m², Large (>1 m²)

Expand to show TLE details & history
Last TLE update: 15 hours ago

TLE from 15 hours ago
0 STARLINK-32870
1 63018U 25032P   25301.57295627  .00046293  00000-0  16779-2 0  9990
2 63018  43.0036   2.2482 0001658 272.2076  87.8586 15.27644908 40417
Epoch: 2025-10-28T13:45Z
TLE epoch observation values (Epoch: 2025-10-28T13:45:03.421Z)
Latitude
-0.00002°
Longitude
118.82541°
Altitude
482.588 km
Speed
7.626 km/s
True Right ascension
00h 08m 59s
True Declination
0° 00' 00"
Sunlit
Object was in full shadow at epoch
Visualization orbit readout
Latitude
Unknown
Longitude
Unknown
Altitude
Unknown
Speed
Unknown
Apparent Right ascension
Unknown
Apparent Declination
Unknown
Sunlit
N/A
Visualization observer readout
Local Sidereal Time
00:04:02
Azimuth
Unknown
Elevation
Unknown
Doppler factor
Unknown
Orbital elements
Apogee altitude
485.937 km
Perigee altitude
483.661 km
Semi-major axis
6,862.936 km
Eccentricity
0.00017
Inclination
43.0036°
RAAN
2.2482°
Arg. of periapsis
272.2076°
True anomaly
87.87759°
Mean anomaly
87.8586°
Eccentric anomaly
87.86809°
Mean motion
3.81749 °/min
Orbital period
94.3 mins
BSTAR
0.0016779
Loading maneuver chart data...
Computing Atmospheric mass density...
Loading historical data...
Loading historical data...
Loading historical data...
Loading historical data...
Loading historical data...
Loading historical data...
Loading historical data...

Documentation

Showing up to 5 results
|